TimeEDT,TemperatureF,Dew PointF,Humidity,Sea Level PressureIn,VisibilityMPH,Wind Direction,Wind SpeedMPH,Gust SpeedMPH,PrecipitationIn,Events,Conditions,WindDirDegrees,DateUTC
12:15 AM,64.4,59.0,83,30.17,10.0,Calm,Calm,-,N/A,,Overcast,0,2013-08-17 04:15:00
12:35 AM,64.4,59.0,83,30.16,10.0,NE,4.6,-,N/A,,Overcast,40,2013-08-17 04:35:00
12:55 AM,64.4,59.0,83,30.16,10.0,NE,6.9,-,N/A,,Overcast,40,2013-08-17 04:55:00
1:15 AM,64.4,60.8,88,30.16,10.0,NE,3.5,-,N/A,,Overcast,40,2013-08-17 05:15:00
1:35 AM,64.4,60.8,88,30.16,10.0,Calm,Calm,-,N/A,,Overcast,0,2013-08-17 05:35:00
1:55 AM,64.4,60.8,88,30.15,10.0,NE,3.5,-,N/A,,Overcast,40,2013-08-17 05:55:00
2:15 AM,64.4,60.8,88,30.14,10.0,NE,3.5,-,N/A,,Overcast,40,2013-08-17 06:15:00
2:35 AM,64.4,60.8,88,30.14,10.0,Calm,Calm,-,N/A,,Overcast,0,2013-08-17 06:35:00
2:55 AM,64.4,60.8,88,30.14,10.0,NE,4.6,-,N/A,,Overcast,40,2013-08-17 06:55:00
3:15 AM,64.4,60.8,88,30.14,10.0,NE,4.6,-,N/A,,Overcast,40,2013-08-17 07:15:00
3:35 AM,64.4,60.8,88,30.13,10.0,NNE,3.5,-,N/A,,Overcast,30,2013-08-17 07:35:00
3:55 AM,64.4,60.8,88,30.13,10.0,NE,3.5,-,N/A,,Overcast,40,2013-08-17 07:55:00
4:15 AM,64.4,60.8,88,30.13,10.0,NE,4.6,-,N/A,,Overcast,40,2013-08-17 08:15:00
4:35 AM,64.4,60.8,88,30.13,10.0,Calm,Calm,-,N/A,,Overcast,0,2013-08-17 08:35:00
4:55 AM,64.4,60.8,88,30.13,10.0,NE,3.5,-,N/A,,Overcast,50,2013-08-17 08:55:00
5:15 AM,62.6,60.8,94,30.12,8.0,NE,6.9,-,0.02,,Overcast,40,2013-08-17 09:15:00
5:35 AM,62.6,60.8,94,30.13,10.0,NE,4.6,-,0.07,,Overcast,40,2013-08-17 09:35:00
5:55 AM,62.6,60.8,94,30.14,9.0,Calm,Calm,-,0.09,,Overcast,0,2013-08-17 09:55:00
6:15 AM,62.6,60.8,94,30.14,10.0,NE,4.6,-,0.01,,Overcast,50,2013-08-17 10:15:00
6:35 AM,62.6,60.8,94,30.14,8.0,NE,3.5,-,0.07,,Overcast,40,2013-08-17 10:35:00
6:55 AM,62.6,60.8,94,30.14,9.0,NNE,5.8,-,0.12,,Overcast,30,2013-08-17 10:55:00
7:15 AM,62.6,60.8,94,30.14,10.0,NE,4.6,-,0.03,,Overcast,40,2013-08-17 11:15:00
7:35 AM,62.6,60.8,94,30.14,10.0,NNE,4.6,-,0.03,,Overcast,30,2013-08-17 11:35:00
7:55 AM,62.6,60.8,94,30.14,10.0,NNE,5.8,-,0.04,,Overcast,30,2013-08-17 11:55:00
8:15 AM,62.6,60.8,94,30.15,7.0,North,3.5,-,0.02,,Overcast,10,2013-08-17 12:15:00
8:35 AM,62.6,60.8,94,30.15,4.0,NNE,5.8,-,0.04,,Overcast,30,2013-08-17 12:35:00
8:55 AM,62.6,60.8,94,30.16,8.0,NNE,3.5,-,0.06,,Overcast,30,2013-08-17 12:55:00
9:15 AM,62.6,60.8,94,30.16,10.0,NNE,4.6,-,N/A,,Overcast,30,2013-08-17 13:15:00
9:35 AM,62.6,60.8,94,30.16,10.0,Calm,Calm,-,0.01,,Overcast,0,2013-08-17 13:35:00
9:55 AM,64.4,60.8,88,30.16,4.0,NE,4.6,-,0.01,,Overcast,40,2013-08-17 13:55:00
10:15 AM,64.4,60.8,88,30.17,3.0,Calm,Calm,-,0.01,,Overcast,0,2013-08-17 14:15:00
10:35 AM,64.4,62.6,94,30.17,5.0,Calm,Calm,-,0.01,,Overcast,0,2013-08-17 14:35:00
10:55 AM,64.4,62.6,94,30.17,9.0,NNE,4.6,-,0.01,,Overcast,30,2013-08-17 14:55:00
11:15 AM,64.4,62.6,94,30.17,10.0,NNE,8.1,-,N/A,,Overcast,30,2013-08-17 15:15:00
11:35 AM,64.4,62.6,94,30.17,10.0,NNE,6.9,-,N/A,,Overcast,30,2013-08-17 15:35:00
11:55 AM,64.4,62.6,94,30.17,5.0,NNE,5.8,-,N/A,,Overcast,30,2013-08-17 15:55:00
12:15 PM,64.4,62.6,94,30.17,5.0,NE,5.8,-,N/A,,Overcast,40,2013-08-17 16:15:00
12:35 PM,66.2,62.6,88,30.16,5.0,NE,8.1,-,N/A,,Overcast,40,2013-08-17 16:35:00
12:55 PM,66.2,64.4,94,30.16,4.0,NE,4.6,-,N/A,,Overcast,40,2013-08-17 16:55:00
1:15 PM,66.2,64.4,94,30.16,3.0,NE,5.8,-,N/A,,Overcast,40,2013-08-17 17:15:00
1:35 PM,66.2,64.4,94,30.15,2.5,NE,5.8,-,N/A,,Overcast,40,2013-08-17 17:35:00
1:55 PM,68.0,64.4,88,30.14,3.0,NNE,4.6,-,N/A,,Overcast,30,2013-08-17 17:55:00
2:15 PM,68.0,64.4,88,30.14,5.0,NE,3.5,-,N/A,,Overcast,40,2013-08-17 18:15:00
2:35 PM,69.8,66.2,88,30.14,8.0,NE,5.8,-,N/A,,Overcast,40,2013-08-17 18:35:00
2:55 PM,69.8,66.2,88,30.13,8.0,NE,4.6,-,N/A,,Overcast,50,2013-08-17 18:55:00
3:15 PM,69.8,66.2,88,30.13,7.0,NE,4.6,-,0.02,,Overcast,40,2013-08-17 19:15:00
3:35 PM,69.8,66.2,88,30.12,10.0,NE,8.1,-,0.02,,Overcast,40,2013-08-17 19:35:00
3:55 PM,71.6,68.0,88,30.12,10.0,NE,4.6,-,0.02,,Overcast,40,2013-08-17 19:55:00
4:15 PM,71.6,66.2,83,30.12,10.0,NE,3.5,-,N/A,,Overcast,40,2013-08-17 20:15:00
4:35 PM,69.8,66.2,88,30.11,10.0,NE,5.8,-,N/A,,Overcast,40,2013-08-17 20:35:00
4:55 PM,71.6,66.2,83,30.12,8.0,NE,4.6,-,N/A,,Overcast,40,2013-08-17 20:55:00
5:15 PM,71.6,68.0,88,30.11,10.0,NE,4.6,-,N/A,,Overcast,40,2013-08-17 21:15:00
5:35 PM,71.6,68.0,88,30.12,10.0,NNE,3.5,-,N/A,,Overcast,30,2013-08-17 21:35:00
5:55 PM,71.6,66.2,83,30.12,10.0,Calm,Calm,-,N/A,,Overcast,0,2013-08-17 21:55:00
6:15 PM,69.8,66.2,88,30.12,10.0,Calm,Calm,-,N/A,,Overcast,0,2013-08-17 22:15:00
6:35 PM,69.8,66.2,88,30.13,9.0,NE,4.6,-,N/A,,Overcast,40,2013-08-17 22:35:00
6:55 PM,69.8,66.2,88,30.12,2.5,Calm,Calm,-,N/A,,Overcast,0,2013-08-17 22:55:00
7:15 PM,69.8,66.2,88,30.13,4.0,Calm,Calm,-,N/A,,Overcast,0,2013-08-17 23:15:00
7:35 PM,69.8,66.2,88,30.13,5.0,Calm,Calm,-,N/A,,Overcast,0,2013-08-17 23:35:00
7:55 PM,69.8,66.2,88,30.13,2.0,Calm,Calm,-,N/A,,Overcast,0,2013-08-17 23:55:00
8:15 PM,69.8,66.2,88,30.13,3.0,Calm,Calm,-,N/A,,Overcast,0,2013-08-18 00:15:00
8:35 PM,69.8,66.2,88,30.13,3.0,Calm,Calm,-,0.01,,Overcast,0,2013-08-18 00:35:00
8:55 PM,69.8,66.2,88,30.14,3.0,Calm,Calm,-,0.01,,Overcast,0,2013-08-18 00:55:00
9:15 PM,69.8,66.2,88,30.14,2.5,Calm,Calm,-,0.01,,Overcast,0,2013-08-18 01:15:00
9:35 PM,69.8,66.2,88,30.14,2.5,Calm,Calm,-,0.01,,Overcast,0,2013-08-18 01:35:00
9:55 PM,69.8,68.0,94,30.15,3.0,Calm,Calm,-,0.02,,Overcast,0,2013-08-18 01:55:00
10:15 PM,69.8,66.2,88,30.14,3.0,Calm,Calm,-,0.01,,Overcast,0,2013-08-18 02:15:00
10:35 PM,69.8,66.2,88,30.15,3.0,Calm,Calm,-,0.01,,Overcast,0,2013-08-18 02:35:00
10:55 PM,69.8,68.0,94,30.15,3.0,Calm,Calm,-,0.02,,Overcast,0,2013-08-18 02:55:00
11:15 PM,69.8,68.0,94,30.15,5.0,Calm,Calm,-,N/A,,Overcast,0,2013-08-18 03:15:00
11:35 PM,69.8,68.0,94,30.16,10.0,Calm,Calm,-,N/A,,Overcast,0,2013-08-18 03:35:00
11:55 PM,69.8,68.0,94,30.15,5.0,Calm,Calm,-,N/A,,Overcast,0,2013-08-18 03:55:00